Regional Weather Roundup
Issued by NWS

Home | Current Version | Previous Version | Text Only | Print | Product List | Glossary On
Versions: 1 2 3 4 5 6 7 8 9 10 11 12 13 14 15 16 17 18 19 20 21 22 23 24 25 26 27 28 29 30 31 32 33 34 35 36 37 38 39 40 41 42 43 44 45 46 47 48 49 50
000
ASUS43 KLSX 260207
RWRMO

WEATHER SUMMARY FOR MISSOURI
NATIONAL WEATHER SERVICE SPRINGFIELD MO
800 PM CST SUN JAN 25 2015

NOTE: "FAIR" INDICATES FEW OR NO CLOUDS BELOW 12,000 FEET WITH NO
       SIGNIFICANT WEATHER AND/OR OBSTRUCTIONS TO VISIBILITY.
       CURRENT SKY AND/OR WEATHER CONDITIONS ARE NOT AVAILABLE FOR
       CHILLICOTHE AND FARMINGTON.

MOZ001>031-035>038-043-044-053-054-260300-
...NORTHERN AND WESTERN MISSOURI...

CITY           SKY/WX    TMP DP  RH WIND       PRES   REMARKS
KANSAS CTY INT CLOUDY    35  30  82 N6        30.08S
KANSAS C DTWN  CLOUDY    39  29  67 N7        30.09S
LEE`S SUMMIT   CLOUDY    37  29  72 N15       30.09R WCI  28
ST JOSEPH      PTCLDY    29  26  89 CALM      30.10S
CHILLICOTHE      N/A     34  28  79 N5        30.10R WCI  30
KIRKSVILLE     CLOUDY    30  27  88 N9        30.05R WCI  22

$$
MOZ066>068-077>081-088>096-101>105-260300-
...SOUTHWEST MISSOURI...

CITY           SKY/WX    TMP DP  RH WIND       PRES   REMARKS
SPRINGFIELD    CLOUDY    36  33  89 N20       30.02R WCI  25
JOPLIN         CLOUDY    40  32  73 NW16G22   30.10R

$$
MOZ032>034-039>042-045>050-055>058-069>072-260300-
...CENTRAL MISSOURI...

CITY           SKY/WX    TMP DP  RH WIND       PRES   REMARKS
COLUMBIA       CLOUDY    32  29  88 N15       30.03R WCI  22
JEFFERSON CITY CLOUDY    34  29  82 N14       30.04R WCI  25
ROLLA          CLOUDY    32  29  88 N14       29.96R WCI  22
SEDALIA        CLOUDY    34  30  85 N12       30.07R WCI  25
WHITEMAN AFB   CLOUDY    34  30  85 N14G22    30.07R WCI  25
WARRENSBURG    CLOUDY    36  30  80 NW13G20   30.09R WCI  27
OSAGE BEACH    CLOUDY    34  28  80 NW10G17   30.03R WCI  26

$$
MOZ051-052-059>065-260300-
...EAST CENTRAL MISSOURI...

CITY           SKY/WX    TMP DP  RH WIND       PRES   REMARKS
ST LOUIS INTL  FLURRIES  34  29  82 N13G26    29.94R WCI  25
SPIRIT OF STL  CLOUDY    33  30  88 N15       29.96R WCI  23
ST CHARLES     CLOUDY    32  28  85 N15G22    29.96R WCI  22

$$
MOZ072>076-082>087-097>100-106>115-260300-
...SOUTH CENTRAL AND SOUTHEAST MISSOURI...

CITY           SKY/WX    TMP DP  RH WIND       PRES   REMARKS
CAPE GIRARDEAU CLOUDY    41  38  89 N25G33    29.83R
FARMINGTON     CLOUDY    36  32  87 MISG      29.91R
POPLAR BLUFF   CLOUDY    42  35  76 NW15      29.83R
WEST PLAINS    CLOUDY    36  32  85 NW15G24   29.92R WCI  27

$$



USA.gov is the U.S. government's official web portal to all federal, state and local government web resources and services.